Weather in Novyye Zyattsy

Russia / Udmurt Republic     57°27′35″N   52°34′31″E
temp.,
°C
wind,
m/s
gust,
m/s
humid.,
%
clouds,
%
prec.,
mm/h
press.,
hPa
HPBL,
m
20 june, sun
sun2001:00+20wnw414768 0.1 1015572
04:00+18nnw311863 0.1 1017486
07:00+19n48630 0.0 1019610
10:00+20n47390 0.0 10201025
13:00+22nnw47335 0.0 10211405
16:00+23nnw46350 0.0 10211583
19:00+21nw24530 0.0 1021207
22:00+15ne00740 0.0 102211
21 june, mon
mon2101:00+15wsw11734 0.0 102226
04:00+14s227265 0.0 102340
07:00+16ssw257494 0.1 1023178
10:00+21ssw476093 0.7 1022473
13:00+26wsw365716 0.1 10201083
16:00+29wnw474677 0.1 10182574
19:00+25wnw286497 0.0 1018404
22:00+19wsw229259 0.9 101935
22 june, tue
tue2201:00+18wsw11962 0.6 101911
04:00+17w229542 0.6 101937
07:00+22wnw258327 0.0 1019195
10:00+29nw35476 0.0 1019909
13:00+31nw57375 0.0 10192798
16:00+31nw574027 0.0 10182599
19:00+25nw226074 0.0 101833
22:00+19w27825 0.1 1019148
23 june, wed
wed2301:00+18nw117548 0.0 101817
04:00+18w26905 0.0 1018113
07:00+22wnw36675 0.0 1018250
10:00+28wnw46472 0.0 1017889
13:00+30nw56465 0.0 10171544
16:00+31nw46425 0.0 10172243
19:00+21ese368899 2.2 101798
22:00+19sse1197100 8.3 101726
24 june, thu
thu2401:00+18wnw2798100 1.1 1018185
04:00+17ne259873 1.1 1018116
07:00+20sse239254 0.0 1018304
10:00+24sse337393 0.0 1019874
13:00+27s215891 0.0 10191379
16:00+26ssw237186 1.7 1019881
19:00+21sw2495100 3.9 1018103
22:00+19ssw2296100 4.1 101946